AO-07 1 07530U 74089B 22188.54104284 -.00000029 00000-0 10357-3 0 9993 2 07530 101.9048 168.4749 0012358 5.5276 108.6298 12.53655723179980 UO-11 1 14781U 84021B 22188.48131999 .00000483 00000-0 64471-4 0 9992 2 14781 97.6178 175.0032 0006849 253.3585 106.6878 14.83701924 43010 LO-19 1 20442U 90005G 22188.48850489 .00000049 00000-0 34414-4 0 9996 2 20442 98.7948 153.6570 0012827 108.1633 252.0948 14.33068186695974 HUBBLE 1 20580U 90037B 22188.33037000 .00001415 00000-0 72628-4 0 9991 2 20580 28.4709 37.0879 0002358 248.6535 282.4652 15.10634529569221 MET-2/21 1 22782U 93055A 22188.52679963 .00000033 00000-0 17005-4 0 9994 2 22782 82.5494 358.3043 0021046 292.7070 127.0173 13.83857021456780 AO-27 1 22825U 93061C 22188.52338415 .00000023 00000-0 26827-4 0 9994 2 22825 98.8853 219.9840 0008371 1.1863 358.9337 14.30178660501025 IO-26 1 22826U 93061D 22188.33190617 .00000036 00000-0 31472-4 0 9990 2 22826 98.8798 219.6665 0008652 347.6924 12.4045 14.30525058501254 FO-29 1 24278U 96046B 22188.84081893 -.00000019 00000-0 18138-4 0 9996 2 24278 98.5149 209.7276 0349447 230.3011 126.6836 13.53116819278619 NOAA-15 1 25338U 98030A 22188.83614556 .00000159 00000-0 84713-4 0 9992 2 25338 98.6425 218.1040 0009397 234.2087 125.8220 14.26147112256177 GO-32 1 25397U 98043D 22188.45746140 .00000018 00000-0 27464-4 0 9998 2 25397 98.8186 138.9795 0002290 67.3294 292.8126 14.23760163246278 ISS 1 25544U 98067A 22189.02448439 .00004564 00000-0 88331-4 0 9992 2 25544 51.6426 233.3874 0004565 345.8485 89.8776 15.49857423348416 NO-44 1 26931U 01043C 22188.58494470 .00000031 00000-0 43580-4 0 9999 2 26931 67.0518 6.4346 0007336 260.7728 99.2543 14.30713855 84285 SO-50 1 27607U 02058C 22188.84884797 .00000350 00000-0 68633-4 0 9991 2 27607 64.5536 239.4880 0079460 290.4969 68.7618 14.76153411 51591 CO-55 1 27844U 03031E 22188.54392239 .00000146 00000-0 84839-4 0 9997 2 27844 98.6777 195.9261 0010828 48.9431 311.2681 14.22462792986725 CO-57 1 27848U 03031J 22188.51317385 .00000127 00000-0 76912-4 0 9999 2 27848 98.6823 196.4114 0010866 61.8882 298.3393 14.22018562986536 RS-22 1 27939U 03042A 22188.37745741 .00000424 00000-0 83696-4 0 9994 2 27939 98.1944 329.0948 0013707 141.1651 219.0561 14.67379618 3963 NOAA-18 1 28654U 05018A 22188.74499305 .00000117 00000-0 87329-4 0 9993 2 28654 98.9484 259.1645 0013144 274.0566 85.9103 14.12750095882934 CO-58 1 28895U 05043F 22188.33451959 .00000491 00000-0 10177-3 0 9997 2 28895 98.1092 319.4091 0017971 80.2893 280.0338 14.64372677890328 Falconsat-3 1 30776U 07006E 22188.23927471 .00022846 00000-0 33552-3 0 9995 2 30776 35.4301 130.5346 0004851 264.9655 95.0524 15.54539108852661 CO-65 1 32785U 08021C 22188.51498214 .00001024 00000-0 11262-3 0 9993 2 32785 97.6582 158.7292 0013015 160.2479 199.9246 14.89642419769478 AAUSAT2 1 32788U 08021F 22188.48275462 .00002563 00000-0 22387-3 0 9999 2 32788 97.5329 173.0897 0012379 59.3164 300.9277 14.97600103771431 DO-64 1 32789U 08021G 22188.57474314 .00007032 00000-0 38872-3 0 9999 2 32789 97.3378 214.1486 0008322 248.0755 111.9593 15.14157061774974 CO-66 1 32791U 08021J 22188.15093634 .00001764 00000-0 17579-3 0 9995 2 32791 97.6122 163.8490 0014136 120.2184 240.0437 14.92743040770137 RS-30 1 32953U 08025A 22188.33836788 .00000024 00000-0 10000-3 0 9994 2 32953 82.5023 171.5704 0018432 214.1324 145.8575 12.43111515640801 PRISM 1 33493U 09002B 22188.49213635 .00002799 00000-0 23024-3 0 9998 2 33493 98.2254 176.2002 0016933 106.8730 253.4350 14.99928534731983 NOAA-19 1 33591U 09005A 22188.81944339 .00000165 00000-0 11411-3 0 9990 2 33591 99.1462 223.3828 0014787 128.5055 231.7444 14.12585028691327 SRMSAT 1 37841U 11058D 22188.51095484 .00000326 00000-0 33910-4 0 9996 2 37841 19.9712 133.6746 0011843 203.5957 314.9152 14.10759067554078 HRBE 1 37855U 11061F 22188.34907652 .00003948 00000-0 17693-3 0 9997 2 37855 101.7115 317.9567 0152353 2.7319 357.4694 15.12656919584241 RS-40 1 38735U 12041C 22188.54411851 .00000052 00000-0 30701-3 0 9995 2 38735 82.4769 252.9636 0016332 331.1455 28.8714 12.42586751451016 ZACUBE-1 1 39417U 13066B 22188.48248574 .00001263 00000-0 15974-3 0 9994 2 39417 97.6372 159.0761 0057250 340.6715 19.2327 14.82402142466091 Delfi-N3xt 1 39428U 13066N 22188.82168095 .00001088 00000-0 17466-3 0 9996 2 39428 97.8146 122.3060 0116160 212.1915 147.2164 14.69243914461709 GOMX-1 1 39430U 13066Q 22188.66913421 .00000865 00000-0 16270-3 0 9996 2 39430 97.8088 94.7139 0148933 341.8034 17.7870 14.60233526459241 LO-74 1 39440U 13066AA 22188.84685891 .00001398 00000-0 19497-3 0 9990 2 39440 97.7270 145.5469 0080253 65.7426 295.2143 14.77052715464498 AO-73 1 39444U 13066AE 22188.48448491 .00001436 00000-0 17633-3 0 9990 2 39444 97.6252 161.4860 0055768 328.6759 31.1137 14.83497271464493 SPROUT 1 39770U 14029E 22188.78374058 .00003530 00000-0 36197-3 0 9995 2 39770 97.9442 305.8501 0008968 29.9614 330.2112 14.91069654440697 DTUSAT-2 1 40030U 14033W 22188.52425417 .00001216 00000-0 13185-3 0 9990 2 40030 97.9378 121.3730 0011597 356.0332 4.0791 14.90017276436634 EO-80 1 40032U 14033Y 22188.49686378 .00001406 00000-0 15170-3 0 9990 2 40032 97.9381 121.3590 0011605 357.0345 3.0802 14.89988209436609 HODOYOSHI-1 1 40299U 14070B 22188.46624624 .00003237 00000-0 12422-3 0 9990 2 40299 97.2422 256.0057 0013870 70.2145 57.9763 15.27085730426114 FIREBIRD FU3 1 40377U 15003B 22188.57432658 .00010040 00000-0 29884-3 0 9990 2 40377 99.0984 57.9793 0098448 317.6177 41.7482 15.30265831411496 FIREBIRD FU4 1 40378U 15003C 22188.46784596 .00009724 00000-0 28876-3 0 9997 2 40378 99.0989 58.0636 0098317 317.6086 41.7583 15.30361237411482 GRIFEX 1 40379U 15003D 22188.55157567 .00006459 00000-0 22869-3 0 9998 2 40379 99.1106 43.8649 0114880 0.4271 359.7038 15.23512554410699 XW-2A 1 40903U 15049E 22188.75762328 .00014972 00000-0 23090-3 0 9996 2 40903 97.1778 247.3278 0010488 55.2105 85.0964 15.54186030382412 XW-2C 1 40906U 15049H 22188.50167720 .00003120 00000-0 15114-3 0 9998 2 40906 97.4924 191.7550 0012063 292.3167 227.0691 15.19238209375963 XW-2D 1 40907U 15049J 22188.83831314 .00003583 00000-0 16980-3 0 9997 2 40907 97.4909 192.0866 0011259 286.0429 195.0756 15.19912215376062 LILACSAT-2 1 40908U 15049K 22188.82803536 .00001575 00000-0 85622-4 0 9991 2 40908 97.5167 189.2101 0013916 311.0003 170.4389 15.15886048375573 XW-2E 1 40909U 15049L 22188.83413286 .00005738 00000-0 24090-3 0 9998 2 40909 97.4641 196.6531 0009899 261.7682 222.5973 15.23814908376516 XW-2F 1 40910U 15049M 22188.83419247 .00005680 00000-0 24217-3 0 9990 2 40910 97.4721 195.7925 0010961 263.3186 218.6347 15.23286709376280 XW-2B 1 40911U 15049N 22188.79122285 .00003693 00000-0 17550-3 0 9993 2 40911 97.4906 192.6353 0011130 288.0390 150.0399 15.19799025375940 DCBB 1 40912U 15049P 22188.72489264 .00006525 00000-0 25302-3 0 9991 2 40912 97.4354 200.0320 0011219 224.3120 224.3853 15.26412984376842 TW-1A 1 40928U 15051D 22188.88346272 .00029896 00000-0 35458-3 0 9998 2 40928 97.0366 211.3744 0004653 323.0417 160.3755 15.61153980381420 IO-86 1 40931U 15052B 22188.50822261 .00000825 00000-0 25619-4 0 9999 2 40931 6.0026 26.0502 0012978 92.3143 267.8394 14.76825712366318 AO-85 1 40967U 15058D 22187.53966621 .00001038 00000-0 12459-3 0 4130 2 40967 64.7750 13.9550 0193199 194.2902 165.2696 14.77462108 63485 ATHENOXAT-1 1 41168U 15077C 22188.67304560 .00008680 00000-0 34223-3 0 9991 2 41168 14.9981 300.5262 0010248 169.6715 229.2307 15.21366019363395 ChubuSat-2 1 41338U 16012B 22188.54342138 .00001122 00000-0 78138-4 0 9997 2 41338 31.0023 255.9747 0013354 351.8458 8.1960 15.01437010350508 ChubuSat-3 1 41339U 16012C 22188.86760982 .00000975 00000-0 66972-4 0 9992 2 41339 31.0119 250.8376 0012986 1.7577 358.3112 15.01511296350553 Horyu-4 1 41340U 16012D 22188.48987334 .00001735 00000-0 11801-3 0 9999 2 41340 31.0031 231.1582 0013170 39.9035 320.2567 15.03412362350746 e-st@r-II 1 41459U 16025D 22188.71842812 .00009375 00000-0 40432-3 0 9991 2 41459 98.1883 355.3770 0144530 200.1063 159.4422 15.13758329340560 AAUSAT4 1 41460U 16025E 22188.42608129 .00015732 00000-0 59606-3 0 9999 2 41460 98.1798 1.4441 0124820 176.6338 183.5756 15.19924203340978 LO-87 1 41557U 16033B 22188.79117617 .00007679 00000-0 22778-3 0 9993 2 41557 97.3894 286.5286 0009265 308.5251 169.1540 15.35067041340507 NuSat2 1 41558U 16033C 22188.79367422 .00007337 00000-0 20505-3 0 9992 2 41558 97.4093 292.3450 0008597 295.9702 182.3535 15.36958950340774 Lapan A3 1 41603U 16040E 22188.51265744 .00000815 00000-0 39922-4 0 9993 2 41603 97.2042 224.6666 0014982 90.0127 41.9741 15.20715498335082 Pratham 1 41783U 16059A 22188.53012118 .00000279 00000-0 62432-4 0 9995 2 41783 97.9118 229.2798 0034807 109.8732 250.6227 14.63371861308567 TY-1 1 41844U 16066D 22188.82641381 .00007714 00000-0 26090-3 0 9993 2 41844 97.3884 200.7417 0011733 207.3050 278.0827 15.30840188314724 CAS-2T 1 41847U 16066G 22188.65286546 .00000817 00000-0 13123-3 0 9995 2 41847 98.5499 253.3021 0364472 149.3241 212.9819 14.38615859297253 EO-88 1 42017U 17008BX 22188.12238965 .00011353 00000-0 33510-3 0 9995 2 42017 97.2676 253.9557 0005908 158.2104 201.9392 15.35121636300093 CAS-4B 1 42759U 17034B 22188.80677083 .00001527 00000-0 10021-3 0 9994 2 42759 43.0167 220.5045 0008462 48.6217 120.6952 15.12021205279435 CAS-4A 1 42761U 17034D 22188.84131830 .00001448 00000-0 95480-4 0 9991 2 42761 43.0163 219.0832 0008425 51.8384 117.3137 15.12106488279447 NIUSat 1 42766U 17036B 22188.51974043 .00005445 00000-0 21015-3 0 9996 2 42766 97.2005 225.6257 0011643 252.4169 107.5798 15.26621762279860 Aalto 1 1 42775U 17036L 22188.56758606 .00004251 00000-0 16867-3 0 9999 2 42775 97.1962 225.5620 0010633 251.5817 108.4266 15.25834129279842 URSA MAIOR 1 42776U 17036M 22188.40995510 .00004632 00000-0 18041-3 0 9999 2 42776 97.1976 226.1582 0010279 250.5072 109.5057 15.26411412279858 Max Valier Sat 1 42778U 17036P 22188.57040130 .00005328 00000-0 20196-3 0 9995 2 42778 97.2037 228.9818 0008889 249.5850 110.4435 15.27256947279972 Pegasus 1 42784U 17036V 22188.33629981 .00006236 00000-0 22238-3 0 9991 2 42784 97.1976 229.6264 0008231 250.8741 109.1609 15.29212493280057 NUDATSat 1 42787U 17036Y 22188.91215425 .00012308 00000-0 37307-3 0 9992 2 42787 97.2009 234.4324 0007009 229.0463 131.0174 15.34250940280236 SUCHAI 1 1 42788U 17036Z 22188.11276496 .00008867 00000-0 29774-3 0 9994 2 42788 97.1983 231.0948 0007608 243.8474 116.1985 15.31053941280191 SKCUBE 1 42789U 17036AA 22188.38079968 .00006736 00000-0 23236-3 0 9999 2 42789 97.1981 230.8000 0007660 244.6350 115.4099 15.30269464280125 VZLUSAT 1 1 42790U 17036AB 22188.07360204 .00012390 00000-0 37758-3 0 9990 2 42790 97.2008 233.5797 0006816 231.9292 128.1337 15.34079230280251 VENTA 1 1 42791U 17036AC 22188.42110706 .00006661 00000-0 23420-3 0 9995 2 42791 97.1983 230.7106 0007399 245.7752 114.2716 15.29653329280110 Robusta 1B 1 42792U 17036AD 22188.59121140 .00008615 00000-0 29158-3 0 9993 2 42792 97.1981 231.5802 0007242 242.9525 117.0978 15.30807679280207 D-SAT 1 42794U 17036AF 22188.52476724 .00001790 00000-0 15468-3 0 9995 2 42794 97.4508 192.8747 0123514 18.8093 341.7631 14.92719704274477 TechnoSat 1 42829U 17042E 22188.54013762 .00000894 00000-0 93449-4 0 9992 2 42829 97.4193 41.5049 0012636 304.3652 55.6372 14.91901463271088 QIKCOM-1 1 42983U 98067NF 22188.81809252 .00324735 60829-4 39863-3 0 9997 2 42983 51.6251 72.3593 0000914 191.7199 168.3793 16.07405494268203 AO-91 1 43017U 17073E 22188.50018066 .00002294 00000-0 17474-3 0 9993 2 43017 97.6733 81.8732 0249654 122.0020 240.5719 14.81487374250088 PICSAT 1 43132U 18004X 22188.15821126 .00007705 00000-0 25321-3 0 9998 2 43132 97.3711 264.4325 0005706 288.8695 71.1928 15.31817527249422 AO-92 1 43137U 18004AC 22188.44130160 .00006019 00000-0 21186-3 0 9998 2 43137 97.3678 263.4210 0005843 294.0274 66.0354 15.29684965249404 TianYi 2 1 43155U 18008A 22188.84230277 .00004462 00000-0 23771-3 0 9998 2 43155 97.3512 246.5859 0017932 75.9342 49.3767 15.15563510246367 Zhou Enlai 1 43156U 18008B 22188.85887500 .00004429 00000-0 23764-3 0 9992 2 43156 97.3555 246.4835 0015173 76.9159 39.7166 15.15355982246290 TianYi 6 1 43158U 18008D 22188.72460072 .00003581 00000-0 19875-3 0 9997 2 43158 97.3520 244.2911 0014657 77.2280 42.0380 15.14278239246170 S-Net D 1 43186U 18014G 22188.46841850 .00001046 00000-0 93563-4 0 9994 2 43186 97.6560 93.8260 0009824 225.7507 134.2910 14.97959611241915 S-Net B 1 43187U 18014H 22188.46857569 .00001044 00000-0 93358-4 0 9999 2 43187 97.6557 93.7768 0009823 225.5917 134.4502 14.97957604241915 S-Net A 1 43188U 18014J 22188.46886260 .00001048 00000-0 93723-4 0 9990 2 43188 97.6561 93.8415 0009817 225.6528 134.3891 14.97957013241917 S-Net C 1 43189U 18014K 22188.46960146 .00001080 00000-0 96479-4 0 9994 2 43189 97.6557 93.7661 0009803 225.2801 134.7624 14.97954717240465 FMN 1 1 43192U 18015A 22188.59609880 .00016996 00000-0 43916-3 0 9997 2 43192 97.5382 334.2628 0009182 318.9235 171.5975 15.39151084246547 Shaonian Xing 1 43199U 18015H 22188.63881497 .00009856 00000-0 29441-3 0 9999 2 43199 97.5159 329.3216 0011615 334.4525 36.6516 15.34747991246548 SurfSat 1 43614U 18070B 22188.83873156 .00038336 00000-0 53903-3 0 9992 2 43614 93.0294 107.4163 0006812 309.2503 50.8156 15.56534483214239 CP-7 DAVE 1 43615U 18070C 22188.34970695 .00021001 00000-0 31155-3 0 9991 2 43615 93.0277 107.0433 0007604 316.9046 43.1620 15.55130985214121 ELFIN-B 1 43616U 18070D 22188.47546225 .00084126 00000-0 68103-3 0 9994 2 43616 93.0181 108.4334 0002380 283.6939 76.4067 15.70538297214497 ELFIN-A 1 43617U 18070E 22188.50989744 .00103081 00000-0 73777-3 0 9991 2 43617 93.0250 109.8492 0001687 234.9763 125.1351 15.73420312214554 CubeBel-1 1 43666U 18083E 22188.50252190 .00005573 00000-0 23606-3 0 9990 2 43666 97.4187 216.9612 0011135 260.5918 237.8478 15.23513585204533 Changshagaoxin 1 43669U 18083H 22188.83935875 .00005184 00000-0 23036-3 0 9992 2 43669 97.4128 213.2094 0007759 257.5930 276.9327 15.21934673204408 Ten-Koh 1 43677U 18084G 22188.34263747 .00000611 00000-0 67353-4 0 9991 2 43677 97.9668 318.5763 0015316 201.0112 159.0478 14.91136079200647 PO-101 1 43678U 18084H 22188.83482005 .00000151 00000-0 20572-4 0 9997 2 43678 97.9740 322.3422 0008922 211.8475 148.2187 14.92194889200898 IRVINE 01 1 43693U 18088D 22188.30463225 .00021042 00000-0 54299-3 0 9997 2 43693 85.0290 297.3755 0011510 45.2587 314.9599 15.38961677203275 QO-100 1 43700U 18090A 22188.45740351 .00000158 00000-0 00000+0 0 9995 2 43700 0.0182 49.1099 0001230 69.2102 357.5268 1.00270225 13475 Reaktor Hello World 1 43743U 18096AA 22188.48885326 .00007865 00000-0 23812-3 0 9995 2 43743 97.3521 268.2754 0014003 353.8546 6.2523 15.34352230201038 MinXSS-2 1 43758U 18099A 22188.49589832 .00001245 00000-0 11172-3 0 9990 2 43758 97.6240 255.9306 0014554 192.4075 167.6791 14.97453401196106 AO-95 1 43770U 18099N 22188.18182876 .00001439 00000-0 13144-3 0 9993 2 43770 97.6195 254.0196 0013704 203.8807 156.1781 14.96504746195965 RANGE-B 1 43772U 18099Q 22188.50208793 .00001429 00000-0 12848-3 0 9997 2 43772 97.6311 256.0534 0013413 189.2368 170.8610 14.97154880196035 RANGE-A 1 43773U 18099R 22188.17626582 .00000958 00000-0 90148-4 0 9997 2 43773 97.6119 252.8656 0013094 190.7771 169.3171 14.96080685195945 MOVE-II 1 43780U 18099Y 22188.72550714 .00002907 00000-0 25180-3 0 9998 2 43780 97.6227 255.7195 0012866 194.8679 165.2167 14.97836225196098 SNUSat 2 1 43782U 18099AA 22188.42728543 .00000768 00000-0 72195-4 0 9996 2 43782 97.6204 254.7265 0012054 187.3124 172.7923 14.96672170196025 SnugLite 1 43784U 18099AC 22188.39520113 .00001949 00000-0 17449-3 0 9999 2 43784 97.6162 254.3334 0014408 195.0251 165.0544 14.96888597196043 ITASat 1 1 43786U 18099AE 22188.44067381 .00000876 00000-0 81713-4 0 9994 2 43786 97.6223 255.2016 0014462 196.3793 163.6964 14.96642858196043 EAGLET 1 1 43790U 18099AJ 22188.73475379 .00001627 00000-0 14689-3 0 9993 2 43790 97.6219 256.0229 0012673 196.2092 163.8726 14.96811090195820 ESEO 1 43792U 18099AL 22188.74408054 .00000862 00000-0 81342-4 0 9993 2 43792 97.6175 255.2214 0012643 194.1635 165.9234 14.96223391195867 CSIM 1 43793U 18099AM 22188.42262050 .00001952 00000-0 16773-3 0 9999 2 43793 97.6260 256.3365 0011951 185.7596 174.3492 14.98529972195872 Astrocast 0.1 1 43798U 18099AS 22188.44313818 .00001672 00000-0 14739-3 0 9994 2 43798 97.6221 256.2273 0012239 176.4303 183.7009 14.97718959196103 JO-97 1 43803U 18099AX 22188.11758968 .00001663 00000-0 14870-3 0 9990 2 43803 97.6181 254.6469 0014513 195.9981 164.0784 14.97150973196017 Suomi 100 1 43804U 18099AY 22188.40406251 .00002113 00000-0 18798-3 0 9992 2 43804 97.6187 254.8443 0014403 193.5376 166.5461 14.97056646196064 Al Farabi 2 1 43805U 18099AZ 22188.85127933 .00001520 00000-0 13465-3 0 9996 2 43805 97.6185 255.7854 0014285 193.0175 167.0680 14.97631954196159 CHOMPTT 1 43855U 18104G 22188.55161953 .00004898 00000-0 17828-3 0 9993 2 43855 85.0348 37.7476 0016153 155.5685 204.6329 15.27817175197793 ISAT 1 43879U 18111D 22188.30216450 .00001552 00000-0 13595-3 0 9994 2 43879 97.6653 93.5551 0010503 252.5580 107.4495 14.98095441192640 UWE-4 1 43880U 18111E 22188.70415592 .00001608 00000-0 14014-3 0 9997 2 43880 97.6684 94.6627 0009712 251.8322 108.1843 14.98251239190730 Sparrow 1 43881U 18111F 22187.78444562 .00001053 00000-0 93155-4 0 9992 2 43881 97.6684 93.9934 0010501 254.1882 105.8183 14.98394585192600 Lume 1 1 43908U 18111AJ 22188.64700827 .00006428 00000-0 21812-3 0 9998 2 43908 97.1894 75.8209 0018595 8.5543 351.6011 15.30686293196486 FO-99 1 43937U 19003F 22188.03998484 .00008998 00000-0 29994-3 0 9995 2 43937 97.1292 220.6311 0022467 85.5017 274.8791 15.31063390192977 MYSat 1 1 44045U 18092F 22188.57328472 .00033659 00000-0 47475-3 0 9992 2 44045 51.6322 332.1624 0008079 183.5387 176.5548 15.56241551191000 AstroCast 0.2 1 44083U 19018F 22188.15668474 .00008382 00000-0 31702-3 0 9997 2 44083 97.3205 246.6454 0011726 64.3745 295.8704 15.27141146181494 AISTechSat 3 1 44103U 19018AB 22188.40110378 .00005047 00000-0 18807-3 0 9999 2 44103 97.3071 247.2554 0013598 69.8224 290.4477 15.27808732181698 AISat 1 1 44104U 19018AC 22188.50132353 .00005273 00000-0 14734-3 0 9994 2 44104 97.3954 271.7156 0053300 62.7339 297.9319 15.35699247182677 Prox-1 1 44339U 19036A 22188.76472582 .00002308 00000-0 47571-3 0 9994 2 44339 24.0007 65.2464 0010507 80.8109 279.3571 14.55143249161408 Oculus-ASR 1 44348U 19036K 22188.77388905 .00052260 -56096-5 47257-3 0 9995 2 44348 28.5028 51.7236 0232368 180.0079 180.0541 15.38909550167674 Armadillo 1 44352U 19036P 22188.52227694 .00136689 -13454-5 49887-3 0 9990 2 44352 28.5222 328.9174 0108629 313.3713 45.7891 15.78008514168426 NO-104 1 44354U 19036R 22188.28288329 .00036492 -59895-5 30584-3 0 9991 2 44354 28.5261 40.6412 0222228 194.5439 164.8684 15.41969606167745 Move-IIb 1 44398U 19038N 22188.58541453 .00007178 00000-0 34508-3 0 9991 2 44398 97.6292 158.1171 0023480 60.4965 299.8607 15.18878686166097 SONATE 1 44400U 19038Q 22188.60562196 .00002828 00000-0 15506-3 0 9999 2 44400 97.6409 157.2003 0025254 65.1024 295.2825 15.14762459165989 BeeSat 9 1 44412U 19038AC 22188.63573261 .00005243 00000-0 26663-3 0 9990 2 44412 97.6361 158.0712 0022149 66.9130 293.4435 15.17080965165752 JAISAT-1 1 44419U 19038F 22188.41733516 .00004780 00000-0 24032-3 0 9997 2 44419 97.6364 158.7040 0021108 65.1318 295.2107 15.17552379166082 LightSail-2 1 44420U 19036AC 22188.53199818 .00041104 00000-0 50678-2 0 9996 2 44420 24.0002 359.9496 0009425 207.4889 152.5110 14.81473288160184 Taurus 1 1 44530U 19059C 22188.40398338 .00001177 00000-0 33466-3 0 9990 2 44530 98.5487 287.1089 0014698 64.5619 295.7098 14.47135014148736 Duchifat 3 1 44854U 19089C 22188.82083208 .00002037 00000-0 16191-3 0 9997 2 44854 36.9686 339.5915 0008614 17.2782 127.9656 15.01180848140991 OPS-SAT 1 44878U 19092F 22188.46870790 .00005091 00000-0 23730-3 0 9997 2 44878 97.4807 12.2490 0010758 269.3941 90.6061 15.20287750141231 TO-108 1 44881U 19093C 22188.83743936 .00000324 00000-0 47702-4 0 9994 2 44881 97.8925 267.7547 0016231 117.1940 243.0918 14.81746831137798 FloripaSat 1 1 44885U 19093G 22188.44912871 .00001037 00000-0 13334-3 0 9996 2 44885 97.8967 268.7046 0015774 124.6518 235.6188 14.83196675137814 RS-44 1 44909U 19096E 22188.51793899 .00000018 00000-0 35559-4 0 9993 2 44909 82.5199 216.9456 0216164 272.8516 84.7865 12.79713835118077 BY70-2 1 45857U 20042B 22188.91291346 .00003815 00000-0 51056-3 0 9990 2 45857 97.9549 265.5596 0011675 58.5710 301.6652 14.80004653108483 UPMSat 2 1 46276U 20061E 22188.14522264 .00002328 00000-0 11678-3 0 9992 2 46276 97.3907 258.5202 0003207 99.4310 260.7287 15.18303081101862 AmicalSat 1 46287U 20061R 22188.38920857 .00002904 00000-0 16887-3 0 9997 2 46287 97.4455 257.6529 0002584 168.4501 191.6790 15.12838949101480 SALSAT 1 46495U 20068K 22188.44772476 .00001793 00000-0 13200-3 0 9995 2 46495 97.7306 129.7551 0015764 205.3257 154.7198 15.04578367 97196 BY70-3 1 46839U 20079N 22188.75914639 .00014468 00000-0 33353-3 0 9996 2 46839 97.1962 260.5949 0004111 243.5950 269.3185 15.42675440 93370 CAPE 3 1 47309U 21002A 22188.54561588 .00005673 00000-0 23457-3 0 9996 2 47309 60.6840 288.9589 0024148 351.6889 8.3796 15.25036828 81515 AO-109 1 47311U 21002C 22188.59120014 .00004514 00000-0 18663-3 0 9995 2 47311 60.6858 286.4253 0020029 353.8289 6.2550 15.25539226 81548 MiTEE 1 1 47314U 21002F 22188.57794914 .00010204 00000-0 34950-3 0 9992 2 47314 60.6828 279.3435 0017489 343.9505 16.1029 15.30654508 81670 ExoCube 2 1 47319U 21002L 22188.66121077 .00004514 00000-0 18891-3 0 9994 2 47319 60.6846 287.2683 0021491 354.6972 5.3885 15.25102538 81498 UVSQ-SAT 1 47438U 21006AB 22188.61245561 .00003386 00000-0 18017-3 0 9996 2 47438 97.4359 247.2096 0011503 196.6906 163.3950 15.15869189 80336 YUSAT 1 1 47439U 21006AC 22188.44471966 .00004787 00000-0 24998-3 0 9999 2 47439 97.4366 247.1554 0011296 196.9920 163.0936 15.16331207 80316 SOMP 2b 1 47445U 21006AJ 22188.15281443 .00002664 00000-0 14383-3 0 9992 2 47445 97.4330 246.4090 0010994 202.6496 157.4253 15.15535445 80259 IDEASSat 1 47458U 21006AX 22188.40098532 .00003035 00000-0 16413-3 0 9998 2 47458 97.4421 247.1669 0010232 199.2231 160.8617 15.15377193 80286 Maya-2 1 47929U 98067SF 22187.50330417 .06258577 12351-4 62901-3 0 9991 2 47929 51.6123 198.3492 0003382 301.7247 58.3448 16.37241531 74823 CubeSX-Sirius-HSE 1 47951U 21022V 22188.79480499 .00002802 00000-0 18725-3 0 9992 2 47951 97.5287 87.8887 0022723 77.4902 282.8903 15.07581766 71069 CubeSX-HSE 1 47952U 21022W 22188.78131218 .00003005 00000-0 20021-3 0 9992 2 47952 97.5292 87.8958 0022655 77.4931 282.8824 15.07643101 71065 KSU-Cubesat 1 47954U 21022Y 22188.41068792 .00003000 00000-0 19869-3 0 9993 2 47954 97.5290 87.6407 0022312 77.7439 282.6286 15.07876628 70733 GRBAlpha 1 47959U 21022AD 22188.44729473 .00002968 00000-0 19768-3 0 9991 2 47959 97.5292 87.6072 0022643 78.8479 281.5267 15.07664678 69837 Orbicraft-Zorkiy 1 47960U 21022AE 22188.88462920 .00002222 00000-0 14844-3 0 9995 2 47960 97.5309 88.1766 0022582 75.9187 284.4543 15.07813579 70590 STECCO 1 47962U 21022AG 22188.51024181 .00003559 00000-0 22320-3 0 9992 2 47962 97.5272 88.5306 0017679 71.6698 103.0808 15.09835118 69892 DO-111 1 47963U 21022AH 22188.44191609 .00009624 00000-0 53212-3 0 9998 2 47963 97.5306 89.5735 0019155 66.1953 294.1284 15.13933084 69977 MO-110 1 47964U 21022AJ 22188.25259582 .00003769 00000-0 23341-3 0 9997 2 47964 97.5289 88.5434 0020396 69.9757 290.3666 15.10216217 69875 FEES 1 48082U 21022AL 22188.44185958 .00004822 00000-0 29325-3 0 9994 2 48082 97.5296 88.6608 0016670 67.0235 293.2751 15.10799790 69609 RamSat 1 48850U 98067SL 22188.68918836 .00057438 00000-0 41276-3 0 9995 2 48850 51.6351 214.0589 0003400 38.4872 321.6369 15.73047962 60512 TUBIN 1 48900U 21059X 22188.73345248 .00002077 00000-0 11781-3 0 9992 2 48900 97.5566 317.8738 0010882 41.6603 63.9485 15.14038159 56987 IT-SPINS 1 49017U 21013G 22188.74398752 .00006113 00000-0 24078-3 0 9999 2 49017 51.5958 302.5605 0008532 148.3296 211.8197 15.26902806 56883 LEDSAT 1 49069U 21073D 22188.74385049 .00002847 00000-0 18376-3 0 9991 2 49069 97.5236 261.2324 0026077 222.2623 137.6597 15.08799033 48895 CUTE 1 49263U 21088D 22188.69855041 .00001527 00000-0 11685-3 0 9991 2 49263 97.5877 256.2166 0019797 1.2665 358.8607 15.03227276 42468 Binar-1 1 49272U 98067SR 22188.51380721 .00063750 00000-0 45265-3 0 9998 2 49272 51.6326 218.8536 0007477 16.7470 343.3774 15.73258853 42826 Maya-3 1 49273U 98067SS 22188.56653716 .00196855 00000-0 70017-3 0 9997 2 49273 51.6270 212.3784 0010526 20.1370 340.0048 15.87770991 42911 Maya-4 1 49274U 98067ST 22188.35241530 .00164634 00000-0 63104-3 0 9991 2 49274 51.6301 213.9637 0010089 16.8853 343.2485 15.86344674 42872 CUAVA-1 1 49275U 98067SU 22188.70382212 .00115694 00000-0 61344-3 0 9990 2 49275 51.6309 214.6069 0009613 17.8508 87.9418 15.79617152 42848 TeikyoSat 4 1 49396U 21102B 22188.16191775 .00000671 00000-0 57573-4 0 9990 2 49396 97.5241 245.6020 0013929 184.9826 175.1262 15.00647199 36007 Z-Sat 1 49399U 21102E 22188.80856802 .00000641 00000-0 52331-4 0 9997 2 49399 97.5358 247.0382 0023780 154.6623 205.5774 15.02617590 36146 KOSEN 1 1 49402U 21102H 22188.72361368 .00001684 00000-0 12667-3 0 9996 2 49402 97.5271 247.0831 0022897 149.3035 210.9536 15.03669496 36150 HO-113 1 50466U 21131B 22188.83046955 .00000026 00000-0 23187-4 0 9993 2 50466 98.5803 266.0747 0005898 91.8835 268.3027 14.38505372 27849 Tevel 1 50999U 22002R 22188.45909815 .00004188 00000-0 22693-3 0 9996 2 50999 97.4796 255.2078 0010596 359.4165 57.9295 15.15100640 26456 Grizu-263a 1 51025U 22002AT 22188.72291265 .00008659 00000-0 43863-3 0 9999 2 51025 97.4969 256.1492 0011908 2.0940 358.0341 15.17162930 26515 NO-116 1 51031U 22002AZ 22188.17678198 .00004638 00000-0 24357-3 0 9999 2 51031 97.4922 255.3947 0012464 3.7251 356.4072 15.16141729 26423 IRIS-A 1 51044U 22002BN 22188.83137200 .00002861 00000-0 16297-3 0 9990 2 51044 97.4812 255.3435 0009027 5.5684 354.5646 15.13586578 26493 DELFI-PQ 1 51074U 22002CU 22188.14825500 .00005755 00000-0 28827-3 0 9991 2 51074 97.5049 256.0284 0014015 33.3676 326.8438 15.17687992 26444 SO-115 1 51080U 22002DA 22188.13108552 .00004578 00000-0 23593-3 0 9995 2 51080 97.5063 255.9284 0014010 33.5013 326.7103 15.16798849 26437 SO-114 1 51081U 22002DB 22188.13161175 .00004581 00000-0 23604-3 0 9993 2 51081 97.5054 255.9088 0014297 33.2576 326.9552 15.16802149 26437 OreSat0 1 52017U 22026K 22188.50377266 .00003410 00000-0 18355-3 0 9997 2 52017 97.5021 188.0921 0026441 201.0097 159.0051 15.15224073 17229 Planetum 1 1 52738U 22057G 22188.50396359 .00003177 00000-0 18821-3 0 9993 2 52738 97.5140 302.8304 0010036 102.8795 257.3557 15.12078946 6468 Foresail-1 1 52766U 22057AL 22188.53226092 .00003076 00000-0 17562-3 0 9992 2 52766 97.5239 303.0018 0015326 86.0251 274.2732 15.13385820 6477 SNUGLITE 2 1 52899U 22065F 22188.74155459 .00000441 00000-0 10485-3 0 9999 2 52899 98.0230 339.4599 0007363 204.6426 155.4486 14.58344206 653 /EX
